| time (UTC) | temp F | wind direction | speed MPH | gust MPH | rain 1hr in | rain 24hr in | rain mn in | humidity % | barometer mb |
| 20260510220206 | 58 | 267 | 4.0 | 14.0 | 0.00 | 0.00 | 0.00 | 32 | 1017.3 |
| 20260510215526 | 58 | 275 | 4.0 | 16.0 | 0.00 | 0.00 | 0.00 | 31 | 1017.2 |
| 20260510215142 | 58 | 285 | 7.0 | 16.0 | 0.00 | 0.00 | 0.00 | 30 | 1017.1 |
| 20260510214646 | 59 | 276 | 3.0 | 8.0 | 0.00 | 0.00 | 0.00 | 31 | 1017.1 |
| 20260510214147 | 59 | 281 | 4.0 | 9.0 | 0.00 | 0.00 | 0.00 | 30 | 1017.0 |
| 20260510213649 | 60 | 287 | 5.0 | 10.0 | 0.00 | 0.00 | 0.00 | 30 | 1016.9 |
| 20260510213134 | 59 | 285 | 6.0 | 11.0 | 0.00 | 0.00 | 0.00 | 29 | 1016.9 |
| 20260510212637 | 59 | 282 | 6.0 | 11.0 | 0.00 | 0.00 | 0.00 | 29 | 1016.9 |
| 20260510212157 | 60 | 295 | 4.0 | 8.0 | 0.00 | 0.00 | 0.00 | 30 | 1016.7 |
| 20260510211631 | 59 | 320 | 2.0 | 9.0 | 0.00 | 0.00 | 0.00 | 28 | 1016.7 |
| 20260510211133 | 59 | 195 | 4.0 | 9.0 | 0.00 | 0.00 | 0.00 | 31 | 1016.7 |
| 20260510210636 | 59 | 300 | 5.0 | 11.0 | 0.00 | 0.00 | 0.00 | 28 | 1016.7 |
| 20260510210139 | 59 | 292 | 2.0 | 13.0 | 0.00 | 0.00 | 0.00 | 31 | 1016.6 |
| 20260510205645 | 58 | 276 | 6.0 | 13.0 | 0.00 | 0.00 | 0.00 | 30 | 1016.6 |
| 20260510205211 | 58 | 293 | 4.0 | 10.0 | 0.00 | 0.00 | 0.00 | 30 | 1016.6 |
| 20260510204634 | 58 | 334 | 4.0 | 11.0 | 0.00 | 0.00 | 0.00 | 31 | 1016.6 |
| 20260510204134 | 59 | 272 | 4.0 | 12.0 | 0.00 | 0.00 | 0.00 | 30 | 1016.7 |
| 20260510203637 | 60 | 260 | 4.0 | 12.0 | 0.00 | 0.00 | 0.00 | 27 | 1016.7 |
| 20260510203142 | 58 | 297 | 1.0 | 8.0 | 0.00 | 0.00 | 0.00 | 30 | 1016.8 |
| 20260510202645 | 58 | 257 | 2.0 | 8.0 | 0.00 | 0.00 | 0.00 | 28 | 1016.9 |
| 20260510202144 | 58 | 304 | 2.0 | 11.0 | 0.00 | 0.00 | 0.00 | 31 | 1017.0 |
| 20260510201649 | 58 | 347 | 4.0 | 12.0 | 0.00 | 0.00 | 0.00 | 30 | 1016.9 |
| 20260510201148 | 58 | 285 | 4.0 | 12.0 | 0.00 | 0.00 | 0.00 | 29 | 1016.9 |
| 20260510200650 | 58 | 26 | 3.0 | 13.0 | 0.00 | 0.00 | 0.00 | 29 | 1016.9 |
| 20260510200136 | 58 | 268 | 5.0 | 14.0 | 0.00 | 0.00 | 0.00 | 30 | 1017.1 |
| 20260510195640 | 58 | 288 | 4.0 | 14.0 | 0.00 | 0.00 | 0.00 | 28 | 1017.0 |
| 20260510195137 | 59 | 294 | 4.0 | 9.0 | 0.00 | 0.00 | 0.00 | 26 | 1017.1 |
| 20260510194706 | 59 | 84 | 2.0 | 13.0 | 0.00 | 0.00 | 0.00 | 29 | 1017.2 |
| 20260510194145 | 58 | 133 | 3.0 | 17.0 | 0.00 | 0.00 | 0.00 | 28 | 1017.1 |
| 20260510193649 | 57 | 238 | 2.0 | 11.0 | 0.00 | 0.00 | 0.00 | 29 | 1017.1 |
| 20260510193149 | 57 | 266 | 4.0 | 13.0 | 0.00 | 0.00 | 0.00 | 29 | 1017.2 |
| 20260510192632 | 58 | 230 | 6.0 | 13.0 | 0.00 | 0.00 | 0.00 | 27 | 1017.2 |
| 20260510192149 | 58 | 310 | 1.0 | 5.0 | 0.00 | 0.00 | 0.00 | 27 | 1017.2 |
| 20260510191653 | 59 | 71 | 2.0 | 11.0 | 0.00 | 0.00 | 0.00 | 26 | 1017.2 |
| 20260510191150 | 59 | 88 | 1.0 | 11.0 | 0.00 | 0.00 | 0.00 | 29 | 1017.2 |
| 20260510190634 | 58 | 331 | 3.0 | 9.0 | 0.00 | 0.00 | 0.00 | 29 | 1017.3 |
| 20260510190138 | 59 | 279 | 5.0 | 9.0 | 0.00 | 0.00 | 0.00 | 28 | 1017.3 |
| 20260510185645 | 58 | 322 | 1.0 | 5.0 | 0.00 | 0.00 | 0.00 | 29 | 1017.1 |
| 20260510185143 | 58 | 290 | 2.0 | 9.0 | 0.00 | 0.15 | 0.00 | 26 | 1017.2 |
| 20260510184649 | 59 | 271 | 2.0 | 9.0 | 0.00 | 0.15 | 0.00 | 27 | 1017.3 |
| 20260510184150 | 58 | 281 | 2.0 | 10.0 | 0.00 | 0.15 | 0.00 | 29 | 1017.1 |
| 20260510183633 | 57 | 347 | 2.0 | 10.0 | 0.00 | 0.15 | 0.00 | 29 | 1017.0 |
| 20260510183154 | 57 | 276 | 3.0 | 10.0 | 0.00 | 0.15 | 0.00 | 27 | 1017.1 |
| 20260510182657 | 59 | 268 | 4.0 | 9.0 | 0.00 | 0.15 | 0.00 | 27 | 1017.1 |
| 20260510182136 | 59 | 314 | 1.0 | 10.0 | 0.00 | 0.15 | 0.00 | 29 | 1017.0 |
| 20260510181639 | 58 | 44 | 2.0 | 12.0 | 0.00 | 0.15 | 0.00 | 31 | 1017.0 |
| 20260510181139 | 57 | 283 | 5.0 | 12.0 | 0.00 | 0.15 | 0.00 | 28 | 1017.0 |
| 20260510180642 | 57 | 257 | 3.0 | 7.0 | 0.00 | 0.15 | 0.00 | 27 | 1016.9 |
| 20260510180148 | 57 | 312 | 2.0 | 10.0 | 0.00 | 0.15 | 0.00 | 29 | 1016.9 |
| 20260510175652 | 58 | 319 | 4.0 | 13.0 | 0.00 | 0.15 | 0.00 | 27 | 1017.0 |
| 20260510175149 | 59 | 297 | 6.0 | 11.0 | 0.00 | 0.15 | 0.00 | 28 | 1016.9 |
| 20260510174634 | 59 | 94 | 1.0 | 7.0 | 0.00 | 0.15 | 0.00 | 30 | 1016.8 |
| 20260510174134 | 58 | 115 | 1.0 | 7.0 | 0.00 | 0.15 | 0.00 | 28 | 1016.9 |
| 20260510173638 | 57 | 290 | 1.0 | 9.0 | 0.00 | 0.15 | 0.00 | 31 | 1016.9 |
| 20260510173141 | 56 | 329 | 2.0 | 9.0 | 0.00 | 0.15 | 0.00 | 29 | 1016.9 |
| 20260510172643 | 56 | 283 | 3.0 | 9.0 | 0.00 | 0.15 | 0.00 | 28 | 1016.8 |
| 20260510172142 | 56 | 49 | 2.0 | 8.0 | 0.00 | 0.15 | 0.00 | 30 | 1016.8 |
| 20260510171647 | 56 | 323 | 3.0 | 11.0 | 0.00 | 0.15 | 0.00 | 28 | 1017.0 |
| 20260510171212 | 55 | 268 | 3.0 | 11.0 | 0.00 | 0.15 | 0.00 | 30 | 1016.9 |
| 20260510170652 | 56 | 311 | 2.0 | 12.0 | 0.00 | 0.15 | 0.00 | 29 | 1017.0 |
| 20260510170153 | 55 | 295 | 4.0 | 12.0 | 0.00 | 0.15 | 0.00 | 29 | 1017.0 |
| 20260510165655 | 56 | 278 | 2.0 | 14.0 | 0.00 | 0.15 | 0.00 | 31 | 1017.1 |
| 20260510165154 | 56 | 271 | 5.0 | 14.0 | 0.00 | 0.15 | 0.00 | 30 | 1017.2 |
| 20260510164636 | 56 | 305 | 1.0 | 10.0 | 0.00 | 0.15 | 0.00 | 31 | 1017.0 |
| 20260510164134 | 55 | 206 | 2.0 | 11.0 | 0.00 | 0.15 | 0.00 | 31 | 1017.0 |
| 20260510163637 | 55 | 307 | 4.0 | 13.0 | 0.00 | 0.15 | 0.00 | 32 | 1017.0 |
| 20260510163159 | 55 | 285 | 5.0 | 13.0 | 0.00 | 0.15 | 0.00 | 31 | 1017.0 |
| 20260510162642 | 55 | 283 | 6.0 | 12.0 | 0.00 | 0.15 | 0.00 | 29 | 1017.0 |
| 20260510162139 | 56 | 266 | 4.0 | 10.0 | 0.00 | 0.15 | 0.00 | 28 | 1016.9 |
| 20260510161708 | 57 | 309 | 1.0 | 8.0 | 0.00 | 0.15 | 0.00 | 30 | 1016.9 |
| 20260510161145 | 56 | 252 | 2.0 | 8.0 | 0.00 | 0.15 | 0.00 | 31 | 1016.8 |
| 20260510160647 | 56 | 234 | 1.0 | 7.0 | 0.00 | 0.15 | 0.00 | 29 | 1016.8 |
| 20260510160131 | 56 | 110 | 3.0 | 7.0 | 0.00 | 0.15 | 0.00 | 32 | 1016.8 |
| 20260510155635 | 55 | 111 | 2.0 | 6.0 | 0.00 | 0.15 | 0.00 | 33 | 1016.8 |
| 20260510155134 | 55 | 84 | 1.0 | 7.0 | 0.00 | 0.15 | 0.00 | 33 | 1016.8 |
| 20260510154638 | 54 | 17 | 3.0 | 9.0 | 0.00 | 0.15 | 0.00 | 31 | 1016.7 |
| 20260510154138 | 54 | 285 | 3.0 | 10.0 | 0.00 | 0.15 | 0.00 | 31 | 1016.7 |
| 20260510153639 | 54 | 331 | 4.0 | 10.0 | 0.00 | 0.15 | 0.00 | 33 | 1016.6 |
| 20260510153141 | 54 | 251 | 3.0 | 11.0 | 0.00 | 0.15 | 0.00 | 33 | 1016.5 |
| 20260510152642 | 54 | 278 | 3.0 | 11.0 | 0.00 | 0.15 | 0.00 | 35 | 1016.5 |
| 20260510152140 | 54 | 255 | 3.0 | 11.0 | 0.00 | 0.15 | 0.00 | 35 | 1016.4 |
| 20260510151643 | 53 | 342 | 2.0 | 10.0 | 0.00 | 0.15 | 0.00 | 35 | 1016.3 |
| 20260510151207 | 53 | 316 | 3.0 | 11.0 | 0.00 | 0.15 | 0.00 | 36 | 1016.3 |
| 20260510150650 | 52 | 283 | 6.0 | 11.0 | 0.00 | 0.15 | 0.00 | 37 | 1016.4 |
| 20260510150148 | 53 | 283 | 1.0 | 6.0 | 0.00 | 0.15 | 0.00 | 39 | 1016.3 |
| 20260510145631 | 53 | 264 | 2.0 | 8.0 | 0.00 | 0.15 | 0.00 | 39 | 1016.3 |
| 20260510145150 | 52 | 326 | 1.0 | 8.0 | 0.00 | 0.15 | 0.00 | 40 | 1016.3 |
| 20260510144632 | 52 | 297 | 4.0 | 8.0 | 0.00 | 0.15 | 0.00 | 38 | 1016.2 |
| 20260510144146 | 51 | 274 | 2.0 | 9.0 | 0.00 | 0.15 | 0.00 | 38 | 1016.0 |
| 20260510143648 | 51 | 286 | 4.0 | 9.0 | 0.00 | 0.15 | 0.00 | 38 | 1015.9 |
| 20260510143132 | 51 | 354 | 2.0 | 7.0 | 0.00 | 0.15 | 0.00 | 39 | 1016.0 |
| 20260510142633 | 51 | 263 | 3.0 | 7.0 | 0.00 | 0.15 | 0.00 | 40 | 1015.9 |
| 20260510142134 | 51 | 253 | 4.0 | 6.0 | 0.00 | 0.15 | 0.00 | 41 | 1015.9 |
| 20260510141636 | 51 | 286 | 2.0 | 4.0 | 0.00 | 0.15 | 0.00 | 41 | 1015.9 |
| 20260510141135 | 51 | 59 | 0.0 | 6.0 | 0.00 | 0.15 | 0.00 | 43 | 1015.9 |
| 20260510140637 | 50 | 292 | 1.0 | 4.0 | 0.00 | 0.15 | 0.00 | 43 | 1015.8 |
| 20260510140136 | 50 | 264 | 0.0 | 3.0 | 0.00 | 0.15 | 0.00 | 45 | 1015.8 |
| 20260510135639 | 50 | 236 | 0.0 | 9.0 | 0.00 | 0.15 | 0.00 | 45 | 1015.9 |
| 20260510135139 | 49 | 263 | 3.0 | 9.0 | 0.00 | 0.15 | 0.00 | 44 | 1015.8 |
| 20260510134642 | 49 | 302 | 2.0 | 7.0 | 0.00 | 0.15 | 0.00 | 46 | 1015.8 |
| 20260510134205 | 48 | 260 | 2.0 | 4.0 | 0.00 | 0.15 | 0.00 | 46 | 1015.8 |
| 20260510133647 | 48 | 230 | 0.0 | 4.0 | 0.00 | 0.15 | 0.00 | 48 | 1015.7 |
| 20260510133131 | 47 | 288 | 2.0 | 6.0 | 0.00 | 0.15 | 0.00 | 47 | 1015.8 |
| 20260510132635 | 47 | 270 | 1.0 | 6.0 | 0.00 | 0.15 | 0.00 | 48 | 1015.6 |
| 20260510132134 | 47 | 245 | 3.0 | 6.0 | 0.00 | 0.15 | 0.00 | 48 | 1015.7 |
| 20260510131703 | 47 | 268 | 2.0 | 4.0 | 0.00 | 0.15 | 0.00 | 50 | 1015.6 |
| 20260510131142 | 46 | 295 | 1.0 | 3.0 | 0.00 | 0.15 | 0.00 | 50 | 1015.5 |
| 20260510130647 | 46 | 358 | 1.0 | 3.0 | 0.00 | 0.15 | 0.00 | 50 | 1015.5 |
| 20260510130209 | 46 | 101 | 0.0 | 3.0 | 0.00 | 0.15 | 0.00 | 51 | 1015.5 |
| 20260510125651 | 46 | 302 | 1.0 | 4.0 | 0.00 | 0.15 | 0.00 | 51 | 1015.4 |
| 20260510125151 | 46 | 316 | 1.0 | 4.0 | 0.00 | 0.15 | 0.00 | 51 | 1015.3 |
| 20260510124633 | 45 | 286 | 0.0 | 4.0 | 0.00 | 0.15 | 0.00 | 52 | 1015.3 |
| 20260510124131 | 45 | 345 | 1.0 | 3.0 | 0.00 | 0.15 | 0.00 | 52 | 1015.3 |
| 20260510123702 | 45 | 344 | 1.0 | 4.0 | 0.00 | 0.15 | 0.00 | 52 | 1015.2 |
| 20260510123136 | 45 | 263 | 1.0 | 4.0 | 0.00 | 0.15 | 0.00 | 55 | 1015.2 |
| 20260510122638 | 44 | 279 | 0.0 | 3.0 | 0.00 | 0.15 | 0.00 | 58 | 1015.2 |
| 20260510122136 | 44 | 280 | 0.0 | 4.0 | 0.00 | 0.15 | 0.00 | 56 | 1015.1 |
| 20260510121639 | 44 | 316 | 2.0 | 4.0 | 0.00 | 0.15 | 0.00 | 57 | 1015.1 |
| 20260510121139 | 44 | 312 | 0.0 | 4.0 | 0.00 | 0.15 | 0.00 | 61 | 1015.0 |
| 20260510120641 | 43 | 219 | 0.0 | 2.0 | 0.00 | 0.15 | 0.00 | 60 | 1014.9 |
| 20260510120133 | 43 | 248 | 0.0 | 3.0 | 0.00 | 0.15 | 0.00 | 61 | 1014.9 |
| 20260510115638 | 43 | 294 | 0.0 | 2.0 | 0.00 | 0.15 | 0.00 | 63 | 1014.8 |
| 20260510115136 | 42 | 75 | 0.0 | 4.0 | 0.00 | 0.15 | 0.00 | 63 | 1014.7 |
| 20260510114639 | 42 | 135 | 0.0 | 3.0 | 0.00 | 0.15 | 0.00 | 64 | 1014.6 |
| 20260510114137 | 42 | 32 | 0.0 | 5.0 | 0.00 | 0.15 | 0.00 | 65 | 1014.5 |
| 20260510113701 | 41 | 295 | 0.0 | 3.0 | 0.00 | 0.15 | 0.00 | 67 | 1014.5 |
| 20260510113143 | 41 | 360 | 0.0 | 3.0 | 0.00 | 0.15 | 0.00 | 68 | 1014.4 |
| 20260510112646 | 40 | 248 | 0.0 | 3.0 | 0.00 | 0.15 | 0.00 | 71 | 1014.4 |
| 20260510112144 | 40 | 248 | 0.0 | 1.0 | 0.00 | 0.15 | 0.00 | 74 | 1014.4 |
| 20260510111649 | 39 | 303 | 0.0 | 0.0 | 0.00 | 0.15 | 0.00 | 73 | 1014.3 |
| 20260510111148 | 39 | 306 | 0.0 | 0.0 | 0.00 | 0.15 | 0.00 | 73 | 1014.2 |
| 20260510110633 | 39 | 307 | 0.0 | 0.0 | 0.00 | 0.15 | 0.00 | 74 | 1014.1 |
| 20260510110136 | 39 | 307 | 0.0 | 0.0 | 0.00 | 0.15 | 0.00 | 74 | 1014.1 |
| 20260510105638 | 39 | 303 | 0.0 | 0.0 | 0.00 | 0.15 | 0.00 | 74 | 1014.1 |
| 20260510105137 | 39 | 304 | 0.0 | 0.0 | 0.00 | 0.15 | 0.00 | 74 | 1014.0 |
| 20260510104641 | 39 | 303 | 0.0 | 0.0 | 0.00 | 0.15 | 0.00 | 75 | 1013.9 |
| 20260510104139 | 39 | 329 | 0.0 | 0.0 | 0.00 | 0.15 | 0.00 | 76 | 1013.9 |
| 20260510103708 | 39 | 329 | 0.0 | 0.0 | 0.00 | 0.15 | 0.00 | 77 | 1013.8 |
| 20260510103149 | 39 | 329 | 0.0 | 0.0 | 0.00 | 0.15 | 0.00 | 77 | 1013.7 |
| 20260510102652 | 39 | 337 | 0.0 | 0.0 | 0.00 | 0.15 | 0.00 | 78 | 1013.7 |
| 20260510102151 | 38 | 337 | 0.0 | 0.0 | 0.00 | 0.15 | 0.00 | 79 | 1013.7 |
| 20260510101633 | 39 | 338 | 0.0 | 0.0 | 0.00 | 0.15 | 0.00 | 79 | 1013.7 |
| 20260510101132 | 39 | 338 | 0.0 | 0.0 | 0.00 | 0.15 | 0.00 | 79 | 1013.4 |
| 20260510100634 | 39 | 338 | 0.0 | 0.0 | 0.00 | 0.15 | 0.00 | 78 | 1013.5 |
| 20260510100153 | 39 | 338 | 0.0 | 0.0 | 0.00 | 0.15 | 0.00 | 78 | 1013.4 |
| 20260510095635 | 39 | 338 | 0.0 | 0.0 | 0.00 | 0.15 | 0.00 | 76 | 1013.3 |
| 20260510095134 | 40 | 338 | 0.0 | 0.0 | 0.00 | 0.15 | 0.00 | 75 | 1013.3 |
| 20260510094638 | 40 | 338 | 0.0 | 0.0 | 0.00 | 0.15 | 0.00 | 73 | 1013.2 |
| 20260510094157 | 40 | 338 | 0.0 | 0.0 | 0.00 | 0.15 | 0.00 | 73 | 1013.2 |
| 20260510093701 | 40 | 338 | 0.0 | 0.0 | 0.00 | 0.15 | 0.00 | 70 | 1013.2 |
| 20260510093144 | 41 | 338 | 0.0 | 0.0 | 0.00 | 0.15 | 0.00 | 70 | 1013.1 |
| 20260510092646 | 41 | 338 | 0.0 | 0.0 | 0.00 | 0.15 | 0.00 | 70 | 1013.0 |
| 20260510092145 | 42 | 338 | 0.0 | 0.0 | 0.00 | 0.15 | 0.00 | 69 | 1013.0 |
| 20260510091648 | 42 | 338 | 0.0 | 0.0 | 0.00 | 0.15 | 0.00 | 70 | 1013.0 |
| 20260510091148 | 42 | 338 | 0.0 | 0.0 | 0.00 | 0.15 | 0.00 | 69 | 1013.0 |
| 20260510090651 | 42 | 338 | 0.0 | 0.0 | 0.00 | 0.15 | 0.00 | 67 | 1012.9 |
| 20260510090133 | 43 | 288 | 0.0 | 0.0 | 0.00 | 0.15 | 0.00 | 65 | 1012.8 |
| 20260510085635 | 43 | 288 | 0.0 | 2.0 | 0.00 | 0.15 | 0.00 | 65 | 1012.7 |
| 20260510085132 | 43 | 83 | 0.0 | 2.0 | 0.00 | 0.15 | 0.00 | 66 | 1012.5 |
| 20260510084635 | 43 | 28 | 0.0 | 1.0 | 0.00 | 0.15 | 0.00 | 65 | 1012.5 |
| 20260510084133 | 44 | 27 | 0.0 | 1.0 | 0.00 | 0.15 | 0.00 | 65 | 1012.4 |
| 20260510083636 | 44 | 268 | 0.0 | 2.0 | 0.00 | 0.15 | 0.00 | 64 | 1012.3 |
| 20260510083155 | 44 | 336 | 0.0 | 3.0 | 0.00 | 0.15 | 0.00 | 65 | 1012.1 |
| 20260510082636 | 44 | 122 | 0.0 | 5.0 | 0.00 | 0.15 | 0.00 | 64 | 1011.9 |
| 20260510082135 | 44 | 346 | 1.0 | 5.0 | 0.00 | 0.15 | 0.00 | 63 | 1011.8 |
| 20260510081639 | 44 | 312 | 0.0 | 1.0 | 0.00 | 0.15 | 0.00 | 62 | 1011.7 |
| 20260510081137 | 45 | 345 | 0.0 | 1.0 | 0.00 | 0.15 | 0.00 | 61 | 1011.6 |
| 20260510080641 | 45 | 345 | 0.0 | 5.0 | 0.00 | 0.15 | 0.00 | 61 | 1011.5 |
| 20260510080143 | 45 | 26 | 0.0 | 4.0 | 0.00 | 0.15 | 0.00 | 62 | 1011.4 |
| 20260510075645 | 45 | 65 | 0.0 | 2.0 | 0.00 | 0.15 | 0.00 | 60 | 1011.2 |
| 20260510075209 | 45 | 283 | 0.0 | 2.0 | 0.00 | 0.15 | 0.00 | 59 | 1011.1 |
| 20260510074650 | 46 | 68 | 0.0 | 3.0 | 0.00 | 0.15 | 0.00 | 60 | 1010.9 |
| 20260510074149 | 46 | 265 | 0.0 | 3.0 | 0.00 | 0.15 | 0.00 | 58 | 1010.8 |
| 20260510073650 | 46 | 71 | 0.0 | 3.0 | 0.00 | 0.15 | 0.00 | 58 | 1010.7 |
| 20260510073132 | 46 | 9 | 0.0 | 3.0 | 0.00 | 0.15 | 0.00 | 58 | 1010.6 |
| 20260510072634 | 46 | 319 | 1.0 | 3.0 | 0.00 | 0.15 | 0.00 | 59 | 1010.5 |
| 20260510072153 | 47 | 340 | 0.0 | 3.0 | 0.00 | 0.15 | 0.00 | 62 | 1010.4 |
| 20260510071635 | 47 | 142 | 0.0 | 3.0 | 0.00 | 0.15 | 0.00 | 63 | 1010.3 |
| 20260510071135 | 47 | 85 | 1.0 | 3.0 | 0.00 | 0.15 | 0.00 | 63 | 1010.3 |
| 20260510070636 | 47 | 336 | 0.0 | 1.0 | 0.00 | 0.15 | 0.00 | 61 | 1010.3 |
| 20260510070156 | 48 | 50 | 0.0 | 1.0 | 0.00 | 0.15 | 0.00 | 61 | 1010.2 |
| 20260510065634 | 48 | 72 | 0.0 | 1.0 | 0.00 | 0.15 | 0.00 | 62 | 1010.2 |
| 20260510065154 | 48 | 330 | 0.0 | 1.0 | 0.00 | 0.15 | 0.00 | 62 | 1010.2 |
| 20260510064637 | 48 | 9 | 0.0 | 1.0 | 0.00 | 0.15 | 0.00 | 62 | 1010.2 |
| 20260510064140 | 48 | 53 | 0.0 | 1.0 | 0.00 | 0.15 | 0.00 | 62 | 1010.1 |
| 20260510063707 | 48 | 91 | 0.0 | 1.0 | 0.00 | 0.15 | 0.00 | 62 | 1010.1 |
| 20260510063151 | 48 | 91 | 0.0 | 3.0 | 0.00 | 0.15 | 0.00 | 62 | 1010.1 |
| 20260510062653 | 47 | 54 | 0.0 | 3.0 | 0.00 | 0.15 | 0.00 | 65 | 1010.0 |
| 20260510062148 | 48 | 115 | 0.0 | 1.0 | 0.00 | 0.15 | 0.00 | 66 | 1010.0 |
| 20260510061634 | 48 | 115 | 0.0 | 1.0 | 0.00 | 0.15 | 0.00 | 64 | 1009.9 |
| 20260510061134 | 48 | 115 | 0.0 | 0.0 | 0.00 | 0.15 | 0.00 | 66 | 1009.8 |
| 20260510060636 | 48 | 52 | 0.0 | 0.0 | 0.00 | 0.15 | 0.00 | 66 | 1009.8 |
| 20260510060155 | 48 | 44 | 0.0 | 0.0 | 0.00 | 0.15 | 0.00 | 65 | 1009.8 |
| 20260510055658 | 48 | 44 | 0.0 | 0.0 | 0.00 | 0.15 | 0.00 | 67 | 1009.8 |
| 20260510055155 | 48 | 44 | 0.0 | 0.0 | 0.00 | 0.15 | 0.00 | 65 | 1009.7 |
| 20260510054636 | 48 | 44 | 0.0 | 0.0 | 0.00 | 0.15 | 0.00 | 65 | 1009.7 |
| 20260510054136 | 49 | 44 | 0.0 | 0.0 | 0.00 | 0.15 | 0.00 | 66 | 1009.5 |
| 20260510053639 | 49 | 44 | 0.0 | 0.0 | 0.00 | 0.15 | 0.00 | 67 | 1009.3 |
| 20260510053143 | 49 | 44 | 0.0 | 0.0 | 0.00 | 0.15 | 0.00 | 66 | 1009.2 |
| 20260510052712 | 49 | 44 | 0.0 | 0.0 | 0.00 | 0.15 | 0.00 | 65 | 1009.2 |
| 20260510052147 | 49 | 44 | 0.0 | 0.0 | 0.00 | 0.15 | 0.00 | 64 | 1009.0 |
| 20260510051650 | 50 | 44 | 0.0 | 0.0 | 0.00 | 0.15 | 0.00 | 63 | 1008.9 |
| 20260510051131 | 50 | 44 | 0.0 | 0.0 | 0.00 | 0.15 | 0.00 | 62 | 1008.9 |
| 20260510050634 | 51 | 44 | 0.0 | 0.0 | 0.00 | 0.15 | 0.00 | 61 | 1008.8 |
| 20260510050153 | 51 | 44 | 0.0 | 1.0 | 0.00 | 0.15 | 0.00 | 60 | 1008.6 |
| 20260510045652 | 51 | 44 | 0.0 | 1.0 | 0.00 | 0.15 | 0.00 | 60 | 1008.5 |
| 20260510045148 | 51 | 342 | 0.0 | 2.0 | 0.00 | 0.15 | 0.00 | 59 | 1008.5 |
| 20260510044632 | 52 | 342 | 0.0 | 2.0 | 0.00 | 0.15 | 0.00 | 60 | 1008.4 |
| 20260510044149 | 52 | 316 | 0.0 | 1.0 | 0.00 | 0.15 | 0.00 | 59 | 1008.3 |
| 20260510043653 | 52 | 304 | 0.0 | 1.0 | 0.00 | 0.15 | 0.00 | 59 | 1008.2 |
| 20260510043149 | 52 | 307 | 0.0 | 0.0 | 0.00 | 0.15 | 0.00 | 60 | 1008.1 |
| 20260510042653 | 52 | 289 | 0.0 | 1.0 | 0.00 | 0.15 | 0.00 | 59 | 1007.9 |
| 20260510042148 | 52 | 285 | 0.0 | 1.0 | 0.00 | 0.15 | 0.00 | 59 | 1007.8 |
| 20260510041650 | 53 | 275 | 0.0 | 1.0 | 0.00 | 0.15 | 0.00 | 57 | 1007.8 |
| 20260510041149 | 53 | 275 | 0.0 | 1.0 | 0.00 | 0.15 | 0.00 | 56 | 1007.8 |
| 20260510040632 | 53 | 235 | 0.0 | 0.0 | 0.00 | 0.15 | 0.00 | 56 | 1007.8 |
| 20260510040150 | 54 | 235 | 0.0 | 1.0 | 0.00 | 0.15 | 0.00 | 55 | 1007.8 |
| 20260510035633 | 54 | 225 | 0.0 | 5.0 | 0.00 | 0.15 | 0.00 | 54 | 1007.8 |
| 20260510035133 | 54 | 6 | 1.0 | 5.0 | 0.00 | 0.15 | 0.15 | 54 | 1007.9 |
| 20260510034636 | 55 | 240 | 0.0 | 5.0 | 0.00 | 0.15 | 0.15 | 53 | 1007.8 |
| 20260510034137 | 55 | 311 | 0.0 | 2.0 | 0.00 | 0.15 | 0.15 | 53 | 1007.7 |
| 20260510033641 | 55 | 315 | 0.0 | 3.0 | 0.00 | 0.15 | 0.15 | 52 | 1007.5 |
| 20260510033140 | 55 | 331 | 0.0 | 3.0 | 0.00 | 0.15 | 0.15 | 52 | 1007.4 |
| 20260510032643 | 56 | 11 | 1.0 | 4.0 | 0.00 | 0.15 | 0.15 | 51 | 1007.4 |
| 20260510032142 | 56 | 310 | 0.0 | 6.0 | 0.00 | 0.15 | 0.15 | 52 | 1007.4 |
| 20260510031643 | 56 | 319 | 1.0 | 6.0 | 0.00 | 0.15 | 0.15 | 50 | 1007.3 |
| 20260510031141 | 56 | 314 | 1.0 | 8.0 | 0.00 | 0.15 | 0.15 | 50 | 1007.1 |
| 20260510030710 | 56 | 104 | 2.0 | 8.0 | 0.00 | 0.15 | 0.15 | 50 | 1007.1 |
| 20260510030150 | 56 | 252 | 0.0 | 4.0 | 0.00 | 0.15 | 0.15 | 49 | 1007.1 |
| 20260510025633 | 57 | 121 | 1.0 | 6.0 | 0.00 | 0.15 | 0.15 | 48 | 1007.0 |
| 20260510025133 | 57 | 338 | 0.0 | 6.0 | 0.00 | 0.15 | 0.15 | 48 | 1006.9 |
| 20260510024635 | 57 | 25 | 1.0 | 7.0 | 0.00 | 0.15 | 0.15 | 46 | 1006.8 |
| 20260510024134 | 58 | 250 | 1.0 | 7.0 | 0.00 | 0.15 | 0.15 | 46 | 1006.8 |
| 20260510023638 | 58 | 308 | 1.0 | 7.0 | 0.00 | 0.15 | 0.15 | 48 | 1006.7 |
| 20260510023138 | 58 | 271 | 1.0 | 7.0 | 0.00 | 0.15 | 0.15 | 46 | 1006.6 |
| 20260510022708 | 59 | 65 | 2.0 | 7.0 | 0.00 | 0.15 | 0.15 | 45 | 1006.5 |
| 20260510022146 | 59 | 314 | 1.0 | 11.0 | 0.00 | 0.15 | 0.15 | 44 | 1006.5 |
| 20260510021650 | 60 | 27 | 2.0 | 11.0 | 0.00 | 0.15 | 0.15 | 43 | 1006.2 |
| 20260510021146 | 60 | 323 | 3.0 | 8.0 | 0.00 | 0.15 | 0.15 | 44 | 1006.1 |
| 20260510020648 | 61 | 344 | 2.0 | 9.0 | 0.00 | 0.15 | 0.15 | 45 | 1005.9 |
| 20260510020131 | 61 | 203 | 2.0 | 9.0 | 0.00 | 0.15 | 0.15 | 44 | 1005.6 |
| 20260510015634 | 61 | 310 | 2.0 | 8.0 | 0.00 | 0.15 | 0.15 | 45 | 1005.4 |
| 20260510015133 | 61 | 13 | 2.0 | 10.0 | 0.00 | 0.15 | 0.15 | 45 | 1005.3 |
| 20260510014636 | 61 | 173 | 3.0 | 8.0 | 0.00 | 0.15 | 0.15 | 48 | 1005.1 |
| 20260510014136 | 61 | 34 | 1.0 | 7.0 | 0.00 | 0.15 | 0.15 | 48 | 1004.9 |
| 20260510013639 | 61 | 323 | 1.0 | 4.0 | 0.00 | 0.15 | 0.15 | 49 | 1004.8 |
| 20260510013138 | 61 | 302 | 1.0 | 5.0 | 0.00 | 0.15 | 0.15 | 49 | 1004.7 |
| 20260510012640 | 61 | 288 | 2.0 | 8.0 | 0.00 | 0.15 | 0.15 | 49 | 1004.5 |
| 20260510012205 | 61 | 255 | 2.0 | 8.0 | 0.00 | 0.15 | 0.15 | 49 | 1004.3 |
| 20260510011647 | 61 | 287 | 0.0 | 2.0 | 0.00 | 0.15 | 0.15 | 50 | 1004.1 |
| 20260510011143 | 61 | 306 | 0.0 | 2.0 | 0.00 | 0.15 | 0.15 | 50 | 1003.9 |
| 20260510010647 | 61 | 285 | 0.0 | 2.0 | 0.00 | 0.15 | 0.15 | 48 | 1003.9 |
| 20260510010131 | 62 | 256 | 0.0 | 2.0 | 0.00 | 0.15 | 0.15 | 48 | 1003.8 |
| 20260510005634 | 62 | 256 | 0.0 | 3.0 | 0.00 | 0.15 | 0.15 | 46 | 1003.7 |
| 20260510005136 | 63 | 304 | 1.0 | 4.0 | 0.00 | 0.15 | 0.15 | 46 | 1003.6 |
| 20260510004638 | 63 | 274 | 1.0 | 2.0 | 0.00 | 0.15 | 0.15 | 46 | 1003.5 |
| 20260510004139 | 63 | 248 | 0.0 | 2.0 | 0.00 | 0.15 | 0.15 | 44 | 1003.4 |
| 20260510003649 | 63 | 250 | 0.0 | 3.0 | 0.00 | 0.15 | 0.15 | 44 | 1003.3 |
| 20260510003149 | 64 | 244 | 1.0 | 6.0 | 0.00 | 0.15 | 0.15 | 43 | 1003.3 |
| 20260510002631 | 64 | 269 | 2.0 | 8.0 | 0.00 | 0.15 | 0.15 | 42 | 1003.2 |
| 20260510002150 | 65 | 314 | 2.0 | 8.0 | 0.00 | 0.15 | 0.15 | 42 | 1003.1 |
| 20260510001632 | 65 | 262 | 5.0 | 8.0 | 0.00 | 0.15 | 0.15 | 41 | 1003.0 |
| 20260510001151 | 65 | 316 | 4.0 | 8.0 | 0.00 | 0.15 | 0.15 | 40 | 1002.8 |
| 20260510000653 | 66 | 257 | 3.0 | 9.0 | 0.00 | 0.15 | 0.15 | 40 | 1002.8 |
| 20260510000146 | 66 | 240 | 4.0 | 9.0 | 0.00 | 0.15 | 0.15 | 39 | 1002.8 |
| 20260509235650 | 66 | 274 | 3.0 | 11.0 | 0.00 | 0.15 | 0.15 | 39 | 1002.7 |
| 20260509235147 | 67 | 252 | 5.0 | 11.0 | 0.00 | 0.15 | 0.15 | 39 | 1002.8 |
| 20260509234650 | 67 | 283 | 3.0 | 10.0 | 0.00 | 0.15 | 0.15 | 38 | 1002.6 |
| 20260509234146 | 67 | 236 | 3.0 | 10.0 | 0.00 | 0.15 | 0.15 | 38 | 1002.7 |
| 20260509233650 | 67 | 314 | 3.0 | 12.0 | 0.00 | 0.15 | 0.15 | 38 | 1002.7 |
| 20260509233134 | 67 | 284 | 3.0 | 12.0 | 0.00 | 0.15 | 0.15 | 39 | 1002.6 |
| 20260509232642 | 67 | 270 | 4.0 | 11.0 | 0.00 | 0.15 | 0.15 | 37 | 1002.5 |
| 20260509232133 | 67 | 297 | 4.0 | 13.0 | 0.00 | 0.15 | 0.15 | 37 | 1002.5 |
| 20260509231635 | 67 | 273 | 4.0 | 17.0 | 0.00 | 0.15 | 0.15 | 38 | 1002.7 |
| 20260509231133 | 67 | 294 | 8.0 | 20.0 | 0.00 | 0.15 | 0.15 | 37 | 1002.6 |
| 20260509230636 | 67 | 301 | 7.0 | 20.0 | 0.00 | 0.15 | 0.15 | 37 | 1002.5 |
| 20260509230153 | 67 | 286 | 6.0 | 16.0 | 0.00 | 0.15 | 0.15 | 37 | 1002.5 |
| 20260509225653 | 68 | 293 | 8.0 | 20.0 | 0.00 | 0.15 | 0.15 | 36 | 1002.5 |
| 20260509225132 | 68 | 156 | 9.0 | 20.0 | 0.00 | 0.15 | 0.15 | 35 | 1002.5 |
| 20260509224636 | 68 | 252 | 6.0 | 17.0 | 0.00 | 0.15 | 0.15 | 35 | 1002.5 |
| 20260509224155 | 68 | 284 | 7.0 | 21.0 | 0.00 | 0.15 | 0.15 | 35 | 1002.3 |
| 20260509223700 | 68 | 301 | 10.0 | 21.0 | 0.00 | 0.15 | 0.15 | 34 | 1002.2 |
| 20260509223143 | 68 | 260 | 6.0 | 23.0 | 0.00 | 0.15 | 0.15 | 35 | 1002.2 |
| 20260509222646 | 68 | 245 | 10.0 | 23.0 | 0.00 | 0.15 | 0.15 | 34 | 1002.1 |
| 20260509222143 | 69 | 302 | 10.0 | 26.0 | 0.00 | 0.15 | 0.15 | 34 | 1002.0 |
| 20260509221649 | 68 | 245 | 8.0 | 28.0 | 0.00 | 0.15 | 0.15 | 34 | 1001.9 |
| 20260509221149 | 69 | 258 | 8.0 | 17.0 | 0.00 | 0.15 | 0.15 | 34 | 1001.9 |
| 20260509220633 | 68 | 285 | 10.0 | 18.0 | 0.00 | 0.15 | 0.15 | 34 | 1001.7 |